CZ-6A DEB

Satellite information

Favourite Embed

Satellite Type and Status

DEBRISIN ORBIT

Key statistics

Satellite CZ-6A DEB at a glance.

Uptime

909

Days in orbit

Revolutions

≈ 14.5

Per day

Orbit

SSO

Sun Synchronous Orbit

Inclination

98.8

Latest

Satellite identification and parameters

Extended collection of information and parameters for CZ-6A DEB.

Object identification

Identified? True

Debris? True

Object name: CZ-6A DEB

International designator: 2022-151WS

Object number (NORAD): 55225

Object ID (CCSDS): 55225

Country: PEOPLES REPUBLIC OF CHINA (PRC)

Current information (Y/N): Y

RCS size: SMALL

Orbital parameters

Period: 99.242 minutes

Inclination: 98.7645 deg

SMA: 7100.533 km

Apoapsis: 822.938 km

Periapsis: 621.858 km

RAAN: 171.3886 deg

Eccentricy: 0.0141595

Argument of periapsis: 162.56 deg

Mean anomaly: 198.0529 deg

Mean motion: 14.50996516 rev/day

Mean motion (dot): 0.00009704 rev/day2

B* drag term: 0.0021642 1/REarth

Two-line elements (TLE)

Creation date: May 8, 2025, 3:01 a.m.

Reference frame: TEME

Reference center: EARTH

Epoch: May 7, 2025, 3:27 p.m. UTC

TLE line 0: 0 CZ-6A DEB

TLE line 1: 1 55225U 22151WS 25127.64380081 .00009704 00000-0 21642-2 0 9994

TLE line 2: 2 55225 98.7645 171.3886 0141595 162.5600 198.0529 14.50996516124871

Live tracking on map

Real-time ground track for satellite CZ-6A DEB.

In-orbit conjunctions

A list of the most updated potential collisions computed for object CZ-6A DEB.

Target Orbit TCA Probability of collision Miss distance Type
COSMOS 1814 LEO 2024-12-08 13:19:55 0.0001126926 794.0 (m) PAYLOAD
METEOR 1-5 LEO 2024-10-16 15:10:26 0.0001092784 306.0 (m) PAYLOAD

Associated space launch

Chinese satellite reported for atmospheric/ocean/environmental/spatial parameter research purposes, details TBD.

CZ-6A DEB was lifted into orbit during the mission ‘Long March 6A | Yunhai 3’, on board a Long March 6A space rocket.

The launch took place on Nov. 11, 2022, 10:52 p.m. from Launch Complex 9A.

For more information about the launch, click the button.

Launch to space Long March 6A | Yunhai 3
Long March 6A | Yunhai 3

Agency: N/A

Status: Launch Successful

Launch date: Nov. 11, 2022, 10:52 p.m. UTC

Rocket: Long March 6A

Launch pad: Launch Complex 9A

Location: Taiyuan Satellite Launch Center, People's Republic of China

...

Latest news about this satellite

There are no fresh news available about this satellite. Check back as we update our databases every day.


Newsletter sign-up

Weekly statistics, charts and insights to help you stay on top of the space industry.